Location: Unspecified
(0.0000°N, 0.0000°E)
Time: 04:57:37
(UTC+00:00)

CZ-6A DEB - Pass Details

Date: 19 October 2025
Orbit: 818 x 870 km, 98.8° (Epoch: 17 November)

Event Time Altitude Azimuth Distance (km) Brightness Sun altitude
Rises 05:07:03 0° 30° (NNE) 3,408 ? -9.3°
Reaches altitude 10° 05:09:39 10° 40° (NE) 2,467 ? -8.7°
Maximum altitude 05:14:31 33° 103° (ESE) 1,376 ? -7.5°
Drops below altitude 10° 05:19:20 10° 166° (SSE) 2,445 ? -6.3°
Sets 05:21:53 0° 175° (S) 3,373 ? -5.7°
